Location: Crescent
(42.8242°N, 73.7329°W)
Time: 07:00:45
(UTC+00:00)

Transit 4A - Pass Details

Date: 19 February 2026
Orbit: 864 x 977 km, 66.8° (Epoch: 9 March)

Event Time Altitude Azimuth Distance (km) Brightness Sun altitude
Rises 14:41:40 0° 336° (NNW) 3,586 10.4 26.4°
Reaches altitude 10° 14:45:44 10° 2° (N) 2,666 10.0 26.9°
Maximum altitude 14:48:44 14° 31° (NNE) 2,423 10.0 27.3°
Drops below altitude 10° 14:51:46 10° 60° (ENE) 2,695 10.5 27.6°
Sets 14:55:54 0° 85° (E) 3,657 11.4 28.1°
